Location: Kendal
(54.3260°N, 2.7460°W)
Time: 23:46:32
(UTC+00:00)

N. Korean satellite - Visible Passes

Search period start: 20 January 2022 00:00
Search period end: 30 January 2022 00:00
Orbit: 446 x 491 km, 97.3° (Epoch: 20 January)

Date Brightness Start Highest point End Pass type
(mag) Time Alt. Az. Time Alt. Az. Time Alt. Az.
20 Jan 6.7 05:33:59 10° NNE 05:37:37 73° ESE 05:38:15 56° SSE visible
20 Jan 8.3 07:08:12 10° NNW 07:10:19 15° WNW 07:12:18 10° W visible
20 Jan 9.9 17:49:46 10° WSW 17:51:09 12° W 17:52:32 10° WNW visible
21 Jan 8.1 05:05:01 10° NNE 05:08:24 35° E 05:09:09 32° SE visible
21 Jan 7.6 06:38:24 10° N 06:41:26 26° WNW 06:43:13 18° WSW visible
21 Jan 9.3 17:18:55 10° SSW 17:21:43 22° W 17:24:35 10° NW visible
22 Jan 9.3 04:36:24 10° NE 04:39:04 19° E 04:40:04 17° ESE visible
22 Jan 6.7 06:08:56 10° N 06:12:27 48° WNW 06:14:08 26° SW visible
23 Jan 6.5 05:39:41 10° NNE 05:43:20 84° ESE 05:45:03 30° S visible
23 Jan 8.4 07:14:07 10° NNW 07:15:58 13° WNW 07:17:48 10° W visible
23 Jan 10.2 17:56:09 10° W 17:56:53 10° W 17:57:39 10° WNW visible
24 Jan 7.8 05:10:38 10° NNE 05:14:06 41° E 05:15:58 23° SSE visible
24 Jan 7.7 06:44:09 10° N 06:47:04 23° WNW 06:49:59 10° WSW visible
24 Jan 9.5 17:24:44 10° SW 17:27:24 20° W 17:30:06 10° NW visible
25 Jan 9.1 04:41:53 10° NE 04:44:45 21° E 04:46:53 14° SE visible
25 Jan 6.9 06:14:36 10° N 06:18:03 42° WNW 06:20:56 14° SW visible
26 Jan 9.9 04:13:59 10° ENE 04:15:15 11° E 04:16:30 10° ESE visible
26 Jan 6.4 05:45:16 10° NNE 05:48:56 85° WNW 05:51:51 15° SSW visible
26 Jan 8.5 07:19:58 10° NNW 07:21:29 12° NW 07:22:59 10° W visible
27 Jan 7.6 05:16:08 10° NNE 05:19:40 47° E 05:22:47 13° S visible
27 Jan 7.9 06:49:47 10° NNW 06:52:34 21° WNW 06:55:20 10° WSW visible
27 Jan 9.6 17:30:28 10° SW 17:32:58 18° W 17:35:30 10° NW visible
28 Jan 8.9 04:47:15 10° NE 04:50:17 24° E 04:53:18 10° SSE visible
28 Jan 7.1 06:20:09 10° N 06:23:32 37° WNW 06:26:54 10° SW visible
29 Jan 9.8 04:19:01 10° ENE 04:20:46 13° E 04:22:30 10° ESE visible
29 Jan 6.4 05:50:44 10° N 05:54:23 74° WNW 05:58:00 10° SSW visible
